Theta_e
309 309 309 309 309 309 309 310 310 310 310 310 309 309 309 309 309 309 308 308 309 309 309 310 310 310 311 311 310 308 306 310 315 318 318 316 313 310 308 308 307 306 310 313 314 315 314 313 314 314 313 314 313 313 315 316 315 315 315 313 312 313 314 316 317 317 316 317 318 317 317 316 316 318 321 323 321 320 323 326 332 333 333 337 340 343 347 349
309 309 309 309 309 310 310 310 310 310 310 310 310 310 310 309 309 309 309 309 309 309 310 310 310 310 310 310 309 306 308 314 317 316 316 315 312 308 307 306 306 307 311 314 315 314 313 314 314 313 312 313 313 314 315 315 314 314 315 313 313 315 317 317 317 316 316 317 316 317 317 316 317 319 322 324 322 319 319 325 333 334 335 339 343 345 347 349
309 309 309 309 310 310 310 310 309 310 310 310 310 310 310 310 309 309 308 309 309 309 310 310 310 310 309 308 307 306 311 317 318 319 316 314 312 310 307 306 306 309 312 315 315 314 314 313 313 313 312 313 314 314 314 314 314 314 314 313 314 317 317 317 316 315 316 315 316 317 316 316 318 321 323 324 322 320 319 323 332 335 335 338 342 346 349 349
309 309 309 309 309 310 310 310 310 310 310 310 310 310 310 310 310 310 309 309 309 309 309 310 310 309 308 308 306 308 315 319 319 320 316 314 313 311 307 305 308 311 313 316 315 313 313 313 313 313 312 313 314 314 314 313 315 314 313 313 315 317 316 316 316 315 316 315 316 316 316 316 319 320 322 323 323 322 320 322 327 334 337 339 342 345 348 348
308 309 309 309 309 309 309 310 310 310 310 310 310 310 310 310 310 310 310 309 310 309 309 309 309 307 307 308 307 311 318 318 318 319 315 313 311 311 307 306 310 312 314 315 314 312 312 312 312 312 312 313 314 313 313 314 314 313 314 314 315 316 314 315 315 315 315 315 315 315 316 316 317 317 320 324 324 323 323 323 324 330 335 340 341 344 346 346
308 308 308 309 309 310 309 310 310 310 310 310 310 310 310 311 310 311 310 310 310 310 309 308 307 307 306 307 308 314 320 317 317 318 314 310 309 309 306 307 312 314 315 314 313 312 311 311 311 311 311 312 313 314 313 313 314 312 314 314 314 314 314 315 314 314 314 314 315 315 316 316 316 317 320 324 324 325 327 326 328 330 334 339 342 343 345 345
307 308 308 308 309 309 310 310 309 310 310 310 310 310 310 311 310 310 310 310 310 309 308 307 307 307 305 306 312 318 321 318 320 317 313 309 307 307 307 310 313 314 315 313 313 312 311 311 311 312 312 311 313 314 313 314 314 313 313 314 314 314 314 314 315 314 314 315 315 316 316 316 316 318 322 325 325 327 329 331 333 333 335 338 341 343 343 344
307 307 308 308 309 309 309 309 309 310 310 310 310 310 311 310 310 310 310 310 309 309 308 306 307 306 305 310 317 320 321 318 319 317 311 308 306 307 309 312 313 315 315 313 314 312 311 311 311 312 311 312 313 313 314 313 313 312 312 313 314 314 314 314 314 314 314 315 316 316 315 316 317 319 324 325 327 329 327 332 333 332 334 336 339 342 342 343
306 308 308 308 308 308 308 309 309 309 310 310 309 310 310 310 310 310 310 310 309 308 307 305 306 304 307 313 317 319 319 314 318 317 310 308 308 309 311 314 313 314 314 313 314 312 312 312 312 313 312 313 313 312 313 312 313 312 313 313 313 314 314 314 314 314 315 316 316 315 315 317 318 319 324 326 327 328 328 332 332 333 337 338 339 341 342 343
306 307 307 306 306 308 307 308 309 309 309 309 309 309 310 310 310 310 309 309 308 308 305 305 305 303 310 317 320 320 316 313 318 316 311 310 311 312 313 314 313 314 314 314 313 312 312 312 314 313 312 314 313 313 313 312 313 314 314 313 313 314 314 315 315 315 315 316 316 315 315 317 319 319 324 327 327 328 329 331 331 332 335 336 336 341 342 341
305 305 305 304 307 309 308 307 308 308 308 308 309 309 309 309 310 309 309 308 307 306 305 305 304 306 314 319 320 318 312 313 316 315 314 313 313 313 315 314 313 314 314 313 312 313 314 314 315 313 313 313 313 313 314 313 314 314 314 313 314 314 315 315 315 315 314 316 316 316 317 317 318 319 323 325 326 328 331 330 329 329 331 333 336 341 341 341
305 304 304 305 306 308 307 307 306 307 308 308 308 308 307 308 309 310 309 307 306 306 304 304 305 310 317 319 318 315 312 313 313 315 315 313 314 314 314 314 313 315 314 313 312 313 314 315 314 313 313 313 312 313 314 314 314 314 313 313 314 314 314 315 314 314 315 315 316 315 315 316 318 319 321 325 325 327 329 327 329 330 331 332 336 340 340 340
305 304 304 304 305 306 305 304 304 306 307 307 307 308 307 307 309 310 309 306 305 305 303 303 307 314 319 320 317 312 314 314 312 314 312 312 313 313 313 313 314 315 314 314 314 314 313 314 314 314 315 314 313 314 313 314 313 313 313 313 314 313 314 315 315 314 315 315 316 315 312 313 319 318 319 324 324 326 325 325 328 331 333 332 335 338 339 339
304 304 304 303 304 305 303 303 304 305 305 305 306 306 306 307 308 310 309 306 305 305 304 304 309 316 321 319 314 312 315 315 313 313 312 312 311 311 312 312 313 313 313 313 313 313 313 313 313 314 314 314 315 314 314 314 313 314 314 313 313 311 311 315 315 314 316 315 316 316 310 313 318 317 318 321 322 324 325 325 328 330 332 334 334 337 339 338
304 303 303 303 303 303 303 303 304 304 304 304 305 305 306 307 309 311 308 306 306 304 305 309 312 319 323 318 314 313 315 315 315 313 312 312 311 311 311 311 312 312 312 312 312 314 313 314 314 313 314 314 314 313 314 314 313 314 312 310 312 310 312 315 316 315 316 315 316 314 310 314 317 317 318 318 320 322 324 325 327 328 330 332 333 334 337 338
305 303 302 302 302 302 302 303 303 304 303 304 304 305 307 309 311 311 308 305 306 306 308 316 320 320 321 317 316 315 315 316 315 313 312 312 312 312 312 312 313 312 313 313 313 314 314 314 313 314 315 313 313 313 314 313 312 313 312 309 311 310 311 314 316 316 316 315 316 314 312 315 317 317 318 317 318 319 322 325 325 327 330 332 331 331 333 335
305 303 301 301 301 301 302 303 304 303 303 303 303 306 311 313 312 311 307 305 307 310 313 320 320 319 320 317 316 315 316 317 315 314 313 312 313 313 312 313 313 313 313 313 313 313 313 314 313 314 314 313 315 315 312 309 309 311 312 311 312 312 311 312 314 316 316 316 316 315 314 316 317 317 318 318 318 318 320 323 324 326 328 330 330 329 331 334
304 302 301 300 300 300 301 302 303 303 303 303 303 309 314 314 311 312 310 309 312 315 315 317 317 318 318 315 315 317 317 316 315 315 314 313 313 313 313 313 313 313 313 313 313 313 313 314 314 315 315 314 315 314 311 310 311 310 311 311 312 312 312 312 313 316 316 316 315 316 315 316 317 318 318 318 317 318 319 321 324 325 326 329 329 327 329 332
303 301 300 299 299 300 301 302 303 303 303 304 307 312 316 315 314 315 317 316 317 318 316 317 316 317 317 314 316 317 317 316 315 315 315 314 313 313 313 314 313 313 312 313 312 313 314 314 315 315 315 316 316 316 315 314 315 313 313 313 312 311 311 313 316 317 317 316 316 317 316 316 317 318 318 318 318 319 319 320 324 324 325 327 327 326 328 330
302 301 300 300 300 300 300 301 302 302 303 308 314 318 320 321 321 321 320 319 319 319 316 316 315 315 316 315 316 316 316 316 315 314 315 314 314 313 313 313 313 313 313 314 314 315 315 315 314 314 317 319 319 319 319 317 317 316 316 314 313 312 310 314 318 317 318 317 316 317 316 317 317 318 318 318 318 319 319 320 323 323 325 325 324 327 329 331
302 301 300 300 300 300 301 301 302 303 305 310 316 323 322 319 319 319 318 318 319 318 316 315 315 315 317 317 317 316 316 315 314 314 314 314 314 313 313 313 313 313 313 315 317 317 316 313 315 317 319 320 319 319 318 318 318 317 315 312 312 311 312 315 318 317 318 316 315 317 317 317 318 318 318 318 319 319 319 319 321 322 323 322 324 326 329 331
302 301 301 301 301 301 301 302 303 305 308 311 316 322 319 316 316 317 315 316 317 316 315 315 315 315 317 317 317 316 316 315 314 314 315 314 313 313 313 313 313 314 315 315 316 316 314 313 316 319 318 318 318 318 318 318 319 316 315 311 311 312 313 316 320 318 317 316 314 316 316 317 319 318 318 319 319 318 319 319 321 321 321 321 323 326 329 330
302 302 301 302 302 302 303 303 304 307 311 316 321 321 317 315 316 317 316 318 318 316 314 314 314 314 315 316 316 316 316 316 314 314 314 314 313 313 313 313 312 314 315 315 314 313 312 314 318 319 317 317 317 317 318 317 317 317 314 311 310 312 313 313 317 320 319 317 316 317 316 318 319 318 319 320 319 319 319 319 320 321 321 321 322 325 328 329
302 303 303 303 303 304 304 304 306 309 312 318 321 317 315 315 315 316 318 320 319 316 314 314 313 314 315 317 316 315 316 317 315 314 314 314 313 313 314 313 313 313 315 314 314 313 313 316 318 317 316 316 317 319 319 316 315 316 316 313 311 314 314 313 317 320 320 320 319 317 313 315 317 317 318 320 319 319 319 320 322 324 323 322 323 324 325 328
303 303 304 303 304 306 306 306 311 314 316 318 318 316 315 316 316 317 319 322 320 316 316 315 315 315 317 318 317 315 316 316 315 315 315 314 314 314 313 314 313 313 314 314 313 313 314 317 316 316 315 315 316 318 319 316 313 314 317 317 316 316 317 318 318 319 316 315 318 317 312 311 314 316 317 319 319 320 319 320 321 322 322 322 323 324 324 327
305 304 304 303 305 308 309 312 317 317 317 318 317 316 315 316 318 318 321 323 320 316 314 314 315 316 316 317 316 316 316 315 316 317 316 315 316 314 314 314 313 314 314 314 314 313 314 316 315 315 316 316 316 316 318 319 313 312 316 318 318 317 317 318 318 316 313 312 317 319 314 312 312 314 317 319 320 320 319 318 317 318 319 318 320 321 322 325
306 304 304 303 304 309 313 318 318 314 315 317 317 316 315 317 319 320 323 324 319 315 313 314 315 315 315 316 316 316 315 316 316 316 316 316 315 315 314 314 313 313 314 314 313 313 316 316 314 316 317 316 316 315 317 319 314 312 318 319 317 317 317 317 317 315 313 313 316 318 315 312 311 313 318 320 320 320 318 319 318 317 317 318 318 318 319 323
307 305 304 304 303 307 311 315 317 315 316 317 316 315 316 318 320 322 325 322 317 314 315 315 314 314 315 316 316 315 316 315 315 315 316 315 315 315 314 314 314 313 313 314 312 314 317 316 315 315 315 315 315 315 317 319 315 316 320 319 317 318 318 318 317 315 315 314 313 314 315 313 311 312 316 319 318 318 319 319 319 318 318 318 318 319 319 321
308 307 305 305 305 306 307 309 316 317 314 316 315 315 317 320 322 324 324 322 317 314 315 314 313 313 314 314 315 315 315 315 314 314 315 315 315 315 313 313 314 314 313 313 314 315 316 315 315 315 315 314 315 316 317 317 317 318 318 318 317 319 318 318 318 314 315 316 314 314 313 313 312 312 313 317 316 317 318 319 319 319 319 318 320 320 320 320
307 308 305 304 307 310 310 311 314 314 312 316 316 317 320 322 324 323 321 320 317 314 314 313 313 314 313 313 314 314 315 314 314 313 314 314 315 314 313 313 314 314 314 314 314 315 315 314 314 313 314 314 314 315 316 316 317 318 318 316 316 317 318 318 317 314 314 315 314 314 313 313 313 312 312 316 318 318 319 319 319 319 318 319 321 320 319 318
306 308 305 305 310 316 317 317 316 314 315 317 318 319 321 322 324 322 320 318 315 314 313 313 313 313 313 313 313 314 314 314 314 313 314 314 314 314 313 313 313 313 314 314 314 314 314 313 313 312 313 312 313 314 315 314 314 316 316 315 315 315 316 317 315 315 315 314 313 312 313 314 313 312 312 317 319 319 319 319 319 320 319 320 320 319 318 319
305 308 306 306 310 314 317 319 318 317 317 319 320 320 320 320 320 318 318 316 313 313 313 313 314 313 312 313 314 313 313 314 313 313 313 313 314 314 313 313 313 312 312 312 313 314 314 313 313 313 313 312 313 312 312 314 314 315 315 315 314 314 315 316 315 314 315 314 313 313 313 314 312 313 314 317 318 317 318 317 318 319 320 320 319 318 319 319
304 308 308 309 312 314 318 319 318 318 319 321 320 318 318 318 317 316 315 314 313 313 313 313 313 312 313 313 313 313 313 314 313 313 314 313 313 314 314 313 314 314 312 312 312 312 312 313 313 314 313 312 313 311 310 312 313 314 313 314 314 314 316 317 314 313 313 312 313 314 315 314 311 312 316 319 318 318 317 316 318 319 320 320 318 317 318 320
304 307 310 312 311 313 318 317 316 318 321 321 319 317 317 317 315 314 314 314 313 313 313 313 312 312 313 312 312 313 313 312 313 313 313 313 313 313 314 314 313 313 314 312 311 310 309 310 312 313 313 312 312 312 311 313 313 314 314 314 313 313 315 316 313 312 312 311 312 314 314 312 311 315 318 318 317 317 316 316 318 318 318 318 318 318 319 321
305 309 312 314 314 314 316 315 316 319 320 320 317 316 317 315 312 311 312 313 313 313 313 313 313 312 312 312 313 312 312 312 312 313 312 312 312 312 313 314 313 312 313 311 311 311 309 308 311 313 313 313 313 312 314 313 312 314 314 313 312 313 314 313 312 313 313 312 312 313 313 312 314 318 318 316 316 315 316 316 317 317 317 318 319 319 321 321
309 316 317 318 319 317 315 314 317 320 319 318 316 315 315 313 311 310 312 313 313 313 312 312 312 311 311 312 312 312 312 312 312 312 312 312 312 312 313 314 313 313 312 311 311 311 309 309 312 313 312 312 312 313 314 312 311 313 313 312 313 314 313 312 312 313 313 314 312 311 311 312 313 316 316 316 316 315 315 315 316 317 318 318 319 320 320 321
311 318 319 319 318 314 313 313 317 319 317 316 315 314 314 312 311 312 312 312 312 312 312 311 312 311 310 310 311 312 312 312 312 311 310 312 312 313 313 314 313 312 312 312 312 312 311 310 312 312 312 312 313 312 312 312 312 311 311 312 313 313 314 313 312 313 313 314 313 310 311 311 311 313 316 316 316 315 315 314 316 317 318 317 318 319 320 321
312 314 315 317 315 312 313 314 317 317 315 314 314 314 313 311 312 312 311 311 311 311 311 310 311 312 310 310 310 312 312 310 311 310 310 311 312 312 313 313 312 312 313 313 312 313 314 311 311 312 312 312 313 312 311 311 313 312 311 312 313 312 312 312 312 314 314 314 313 311 311 310 310 313 316 316 316 316 315 315 316 316 317 317 317 318 320 320
315 313 313 314 312 312 313 313 315 315 314 314 313 313 312 310 312 312 311 311 310 310 310 310 311 312 311 311 311 312 311 310 310 310 310 310 311 312 312 312 313 312 312 312 312 313 315 313 311 311 312 313 313 312 310 310 311 311 311 312 312 311 311 311 312 312 314 315 315 313 312 312 312 315 317 317 318 317 315 315 316 316 317 317 317 317 318 319
317 312 312 314 312 312 313 313 315 314 313 314 312 313 312 311 312 312 310 309 310 310 311 310 312 311 312 312 311 310 311 311 310 310 310 311 311 312 312 311 312 312 312 311 311 313 314 314 312 312 312 312 312 312 311 310 312 312 312 312 312 312 311 312 312 311 312 313 314 314 314 312 315 317 316 317 319 318 316 315 316 316 316 316 317 318 317 319
312 308 312 314 311 312 313 313 315 313 312 313 312 311 312 313 312 312 310 310 309 310 310 311 312 312 312 312 311 311 311 311 311 310 310 310 310 311 312 311 311 311 311 311 311 313 312 312 313 312 311 310 310 313 313 313 313 313 313 313 312 313 313 313 314 312 311 311 311 314 314 313 316 318 315 316 318 317 315 315 316 315 316 317 317 318 317 318
311 308 311 312 309 311 313 313 313 312 312 312 312 312 312 312 311 311 311 310 310 310 310 311 311 312 312 312 311 311 311 311 311 310 310 309 310 310 311 311 310 309 310 310 310 313 312 311 312 311 311 310 311 312 313 313 313 313 313 313 313 314 312 313 315 314 313 312 311 312 313 315 318 318 315 317 317 316 315 315 315 315 316 316 316 316 317 317
312 309 311 311 308 310 312 311 311 312 312 312 312 312 312 311 311 310 310 310 310 310 310 310 310 311 312 312 311 311 311 311 311 310 310 309 310 311 310 310 309 308 309 308 309 312 312 311 310 308 308 308 309 310 311 311 311 311 312 312 313 313 312 312 313 314 315 314 314 313 314 316 319 317 316 317 316 315 315 314 315 315 316 316 315 316 315 315
310 308 310 310 309 308 309 309 309 310 311 312 312 312 311 310 310 310 310 310 310 310 312 312 311 311 311 311 312 311 311 311 310 310 310 309 310 311 311 310 309 308 309 311 312 313 311 311 310 308 309 309 309 309 309 310 311 310 311 312 311 311 313 313 313 314 315 314 313 313 313 315 318 317 315 315 314 314 314 314 314 315 316 315 315 315 315 315
309 309 309 309 309 309 308 308 310 310 310 312 313 312 311 309 309 309 310 310 310 310 311 312 312 311 311 310 311 311 310 311 311 310 310 310 310 310 310 310 308 307 311 313 314 312 310 311 310 310 310 311 310 309 308 310 311 311 311 311 310 311 313 314 313 313 314 313 312 312 311 313 316 316 314 314 314 314 314 314 314 315 314 315 315 315 315 315
309 310 310 309 309 308 309 310 310 310 310 311 313 312 310 310 310 309 308 309 309 309 309 310 310 310 310 309 310 310 309 309 309 309 309 309 310 310 310 309 308 310 313 312 311 310 310 311 311 310 311 311 310 309 309 310 310 310 311 310 311 311 312 313 312 312 312 312 311 311 311 312 313 314 314 315 314 314 314 314 313 313 314 314 314 315 314 315
308 310 310 310 310 309 309 309 309 309 310 310 311 311 311 311 310 309 308 308 309 309 309 309 309 309 309 310 310 310 309 309 309 309 309 308 309 309 309 308 308 312 314 311 309 310 310 310 311 311 311 310 310 309 310 310 310 309 310 310 311 311 311 312 312 312 313 312 311 311 312 312 312 312 313 313 314 314 314 313 313 312 313 314 314 314 313 313
308 309 309 309 310 310 310 310 309 309 310 310 310 311 312 311 310 310 309 308 308 308 308 309 309 308 308 309 311 311 311 310 310 310 309 308 309 309 309 308 308 311 311 309 309 310 310 310 311 311 311 310 310 310 310 309 309 309 309 310 310 311 311 312 312 312 312 312 312 312 313 312 312 312 312 312 313 312 312 313 313 312 312 313 313 313 312 312
307 308 308 308 310 310 309 309 308 308 309 309 309 311 312 311 310 310 309 309 309 308 308 309 309 308 308 308 309 310 311 311 311 311 311 311 311 310 310 310 309 309 309 308 310 311 310 310 311 310 310 310 309 309 309 309 309 309 309 310 310 311 311 312 312 312 312 312 312 313 313 313 312 312 312 312 312 312 312 312 312 312 312 313 313 312 312 312
306 306 306 308 310 308 308 309 308 309 309 309 308 309 310 310 310 309 307 308 310 311 309 309 309 309 308 308 308 310 312 313 314 313 313 313 312 311 311 310 309 309 308 309 310 311 310 310 311 310 310 309 309 309 309 309 309 309 309 309 309 310 311 311 311 312 312 312 312 313 313 313 312 312 312 312 312 311 311 312 312 311 312 312 312 312 311 311
305 305 305 308 309 306 306 308 307 307 308 308 309 309 309 309 309 308 307 306 308 309 309 309 310 309 308 308 310 310 309 310 311 311 311 312 311 310 309 309 309 309 309 309 309 310 310 310 310 309 309 309 309 308 308 308 308 309 310 310 310 310 311 311 311 311 311 312 312 312 312 312 311 311 310 310 310 310 310 311 311 311 310 311 311 312 311 311
304 305 305 307 308 305 305 307 307 306 307 307 307 307 307 307 306 307 307 306 305 307 307 308 310 309 309 309 309 307 306 307 307 307 307 308 308 308 308 308 308 308 309 309 309 309 309 309 309 309 309 309 309 308 308 308 308 309 309 310 310 309 310 310 310 310 311 311 311 310 310 310 310 310 310 310 310 310 310 310 310 310 310 310 311 311 311 311
Wind_Speed
10 10 10 9 9 9 9 9 9 9 9 9 9 9 9 9 9 9 9 8 8 8 8 10 10 10 11 11 12 13 12 14 15 13 14 12 9 3 4 6 9 13 13 13 12 11 11 12 12 11 10 8 7 8 7 8 7 5 6 7 7 8 9 5 6 3 5 4 2 5 5 5 6 3 3 4 10 13 8 9 6 6 4 10 17 21 22 22
10 10 10 9 9 9 9 9 10 10 10 10 9 10 9 10 9 9 10 9 9 9 9 10 10 10 11 11 12 12 13 15 16 16 14 13 12 10 8 7 10 14 15 15 13 12 11 10 11 11 9 7 7 7 6 7 7 7 7 7 8 9 5 2 4 6 6 7 6 4 4 5 5 4 2 6 10 13 12 11 9 7 8 12 17 20 21 22
11 11 10 10 9 9 10 10 10 10 10 10 10 10 10 9 10 10 10 9 9 9 10 10 10 11 10 10 11 10 13 15 15 11 8 10 12 12 10 9 12 16 17 14 11 12 10 8 10 10 9 8 7 7 6 7 7 7 8 7 8 9 6 2 3 6 6 7 7 5 5 6 4 3 4 8 10 12 14 13 11 10 9 10 15 18 20 21
11 11 11 11 10 10 10 10 10 10 10 10 10 10 10 9 9 9 10 9 9 9 10 10 10 10 10 10 10 9 11 13 7 4 6 6 8 9 11 12 14 17 16 12 9 10 8 7 8 10 10 8 8 8 7 7 6 7 8 9 8 4 5 3 3 5 5 5 7 6 6 7 2 3 6 8 10 10 11 13 13 15 16 13 14 16 18 19
12 12 11 10 11 10 10 10 10 10 10 10 10 9 9 9 9 9 9 9 9 9 10 10 10 9 10 11 9 8 10 6 3 8 4 5 6 8 13 14 16 17 15 10 8 8 8 9 8 9 9 8 8 7 9 9 7 7 7 10 12 6 5 5 3 3 3 5 7 7 7 6 4 6 7 8 10 6 6 12 14 17 20 16 13 16 19 19
12 12 11 11 11 11 10 10 10 10 10 10 10 9 9 9 9 9 9 9 9 9 10 9 9 9 10 11 9 9 9 1 5 5 2 2 4 11 15 15 17 16 13 10 9 8 9 10 9 9 8 9 9 8 10 10 7 7 7 10 12 10 8 6 4 4 3 7 8 7 6 6 7 9 5 8 9 1 2 4 7 14 20 18 13 14 18 19
12 12 12 12 11 11 10 10 10 10 10 10 10 9 9 9 9 9 9 9 9 9 10 9 9 10 10 10 9 10 11 1 6 3 2 1 6 15 16 16 16 14 13 11 9 9 9 10 10 9 8 8 9 9 8 6 7 8 9 9 7 8 9 7 7 6 5 8 8 6 7 6 9 6 2 8 5 4 0 3 11 14 15 15 14 12 14 17
12 12 12 12 11 11 11 11 10 10 10 10 9 8 9 9 9 9 9 9 8 9 9 8 8 8 8 10 9 10 8 3 7 2 2 6 11 17 17 15 15 13 12 12 9 8 8 10 11 8 9 8 5 8 6 5 10 11 12 9 6 7 8 8 8 7 7 8 6 6 8 8 7 4 3 7 3 3 4 7 11 11 13 13 13 14 14 14
11 11 11 11 11 10 10 10 11 11 10 10 9 9 9 9 9 9 9 9 9 9 8 8 8 6 6 7 10 7 1 6 6 3 5 11 14 17 16 13 13 12 11 10 7 8 7 8 9 6 8 5 2 7 6 7 8 9 12 10 7 8 8 9 8 8 8 7 6 7 9 7 4 3 5 5 5 3 6 11 10 8 13 13 12 14 15 14
12 10 11 11 10 9 9 10 10 10 10 10 9 9 9 9 9 8 8 8 8 8 7 7 6 5 7 9 10 4 4 6 5 7 9 13 14 15 14 11 11 12 10 7 8 9 6 5 4 4 7 5 4 7 7 8 3 1 8 9 8 10 8 8 7 8 9 7 7 8 9 5 5 7 5 7 6 6 10 13 11 9 10 11 12 14 15 15
12 11 10 11 10 9 9 9 10 10 10 10 9 9 9 9 8 8 8 7 7 7 6 6 4 5 10 11 9 2 4 3 5 8 11 12 13 13 11 9 10 11 8 6 8 7 4 3 2 4 4 2 5 7 8 8 4 2 7 8 10 12 10 9 8 9 9 8 9 10 7 5 7 7 3 8 8 7 11 12 13 14 11 12 15 15 14 14
12 11 10 10 9 8 8 9 10 10 10 10 10 9 9 9 8 7 7 7 6 5 5 5 4 5 10 11 5 3 5 3 5 7 10 11 12 10 6 7 9 9 7 7 8 5 4 3 4 8 4 1 5 5 5 6 6 6 8 9 11 12 11 11 10 10 10 8 9 10 7 7 10 6 6 8 8 7 10 10 10 12 13 13 13 14 12 13
12 11 10 10 9 8 8 9 10 10 9 10 11 9 9 9 8 7 7 7 6 5 5 4 3 6 11 6 4 7 5 4 5 7 10 11 10 7 5 6 7 7 6 5 5 4 4 3 6 9 5 6 6 1 0 5 7 8 9 9 8 9 9 10 8 9 10 6 8 10 8 8 10 8 8 7 8 9 11 12 11 9 10 11 10 11 13 13
12 11 10 9 9 8 8 9 10 10 9 10 11 10 10 9 8 7 6 6 5 5 4 4 3 6 8 0 8 5 3 4 5 7 10 10 9 7 7 7 6 6 5 4 2 3 5 5 8 9 6 8 6 2 5 8 7 8 9 8 7 8 7 11 8 9 11 6 8 11 7 6 9 11 7 6 7 9 10 13 14 11 7 8 8 8 11 13
11 10 10 9 9 8 9 9 10 10 10 9 10 10 10 9 7 6 6 5 5 4 4 5 5 6 7 3 7 4 4 6 7 8 9 10 10 9 9 9 7 7 5 4 3 4 6 7 8 8 6 7 6 6 8 8 7 7 8 6 7 7 6 10 9 10 11 8 11 13 7 6 10 11 8 6 7 9 9 10 12 13 9 7 6 6 8 11
11 10 9 9 9 9 9 9 10 10 10 9 9 9 9 8 7 6 5 4 4 2 2 6 6 7 7 1 9 7 6 7 8 9 9 9 10 10 10 9 7 7 6 5 4 5 7 7 8 7 4 6 8 8 7 6 7 7 7 6 6 6 7 7 8 9 8 6 12 13 9 5 9 10 8 7 7 8 8 9 9 13 13 9 7 7 8 10
10 9 9 9 9 9 10 10 10 10 10 9 8 8 7 7 6 5 3 2 3 3 5 8 5 6 5 4 9 10 9 8 9 9 10 9 6 8 11 8 7 8 7 6 6 6 7 7 6 5 5 6 6 7 7 7 6 6 6 5 5 6 4 5 8 9 8 7 11 13 11 5 8 9 7 8 9 8 8 8 9 10 12 13 10 10 10 10
10 8 8 8 9 9 10 10 10 10 9 8 8 6 5 5 4 2 2 2 2 5 8 8 6 5 4 7 8 8 9 9 9 9 10 9 7 8 11 8 7 8 7 7 8 8 7 6 6 5 6 6 6 7 6 3 4 5 6 4 4 6 7 3 8 8 9 10 13 11 10 9 7 7 6 8 8 8 8 7 7 8 9 12 12 11 10 9
9 7 7 8 8 9 9 9 9 9 8 6 6 4 3 3 3 4 7 6 6 6 3 6 8 3 2 9 6 6 8 8 9 10 11 10 9 10 10 7 7 9 8 7 8 8 6 5 6 6 7 6 5 5 3 7 10 6 3 4 5 6 7 4 9 5 5 7 11 9 8 13 10 7 7 8 6 6 8 7 6 7 9 10 11 13 12 11
9 7 7 7 7 8 8 8 9 8 7 4 3 4 3 2 2 4 8 9 10 8 5 5 11 5 2 9 7 8 8 8 10 11 12 12 10 11 9 8 8 8 8 6 6 6 5 5 8 6 2 2 3 5 7 8 10 8 5 5 6 5 8 7 10 7 3 5 9 10 9 11 9 6 6 5 6 8 9 9 8 8 9 9 11 12 15 13
9 7 7 6 6 7 7 8 8 7 6 3 4 7 3 5 3 2 1 8 12 11 8 5 8 7 1 4 6 7 7 9 11 11 12 13 12 10 8 9 9 7 9 8 2 3 3 6 9 5 4 7 5 5 6 7 7 7 7 7 7 7 6 2 6 6 3 5 9 10 8 9 10 8 6 5 8 10 10 11 11 10 10 9 11 12 13 12
8 7 6 6 6 6 6 7 6 5 4 3 7 10 3 8 6 5 6 7 9 10 9 6 7 7 3 4 5 5 7 9 11 11 12 12 13 10 8 8 10 7 8 7 3 4 6 9 8 2 5 3 2 4 5 7 8 7 7 8 7 7 5 3 5 3 3 4 9 9 8 8 11 11 8 8 9 9 10 11 11 12 11 10 10 9 10 11
8 6 6 5 6 6 6 7 6 5 5 6 10 9 4 6 6 6 6 7 5 8 9 9 9 9 9 8 7 8 10 9 11 12 12 12 12 10 7 8 10 7 6 7 8 7 5 4 3 7 3 2 3 5 7 7 8 8 8 8 7 7 7 2 5 4 4 4 9 9 7 6 9 10 9 9 9 8 9 10 10 11 11 10 10 8 9 12
8 6 6 5 5 5 5 5 5 7 8 11 12 6 5 5 7 8 6 7 5 7 8 8 9 9 8 6 8 12 11 6 8 12 14 13 10 8 9 9 8 7 7 9 10 11 4 5 7 5 2 5 7 7 8 8 7 9 9 9 8 6 7 6 2 3 5 6 8 9 7 6 10 13 11 10 10 8 7 9 10 9 9 9 8 7 8 10
7 6 6 5 5 5 6 5 6 8 10 12 11 3 4 6 7 8 6 6 5 7 7 7 7 7 5 5 8 11 8 5 5 9 15 14 10 6 6 6 5 8 8 7 7 10 3 6 4 3 3 7 9 8 9 8 7 8 9 9 10 8 6 7 4 5 6 7 8 8 8 7 10 13 11 8 8 9 8 10 12 11 11 9 8 7 7 7
7 6 6 5 5 4 4 3 4 7 9 9 4 1 5 7 6 6 5 5 4 7 8 10 9 6 6 8 10 8 8 7 5 6 11 12 9 5 5 4 5 8 4 3 6 6 3 4 2 3 5 8 9 9 9 8 8 7 4 7 9 9 8 9 8 7 7 6 5 6 7 7 6 7 8 7 9 10 9 10 11 11 11 10 10 10 9 8
7 6 6 6 5 4 3 4 4 6 7 2 1 4 7 6 5 4 4 5 4 7 8 9 7 6 7 9 11 8 5 6 7 7 9 9 7 6 7 6 6 6 2 2 5 3 4 4 3 5 7 8 8 9 7 7 8 4 2 4 8 10 10 9 10 8 8 7 4 8 9 8 6 5 5 7 8 10 10 9 10 10 10 10 9 9 9 8
10 6 6 7 6 7 7 8 9 8 5 5 4 7 7 5 4 4 5 4 3 4 5 6 5 5 6 7 11 9 1 6 7 9 10 10 9 8 9 9 8 6 7 6 4 1 3 5 6 9 8 8 7 6 4 7 8 2 3 5 7 8 9 8 9 8 7 8 6 9 9 7 8 6 4 7 9 10 10 10 9 9 9 8 7 5 4 3
13 5 7 6 7 9 11 10 10 10 7 6 6 7 6 5 5 4 5 3 4 4 2 4 5 7 9 7 11 11 5 6 6 6 10 10 10 9 7 6 9 3 6 7 5 2 4 4 5 8 8 8 6 2 1 6 7 3 3 7 8 8 8 8 8 7 7 7 8 9 8 6 7 5 5 7 9 10 8 8 7 8 7 5 4 3 3 2
16 6 7 6 6 7 9 10 11 10 7 6 7 7 6 6 4 5 5 2 4 6 4 4 6 10 12 10 10 11 11 9 4 6 9 9 10 10 7 4 6 6 5 8 8 4 5 3 3 6 8 9 5 2 3 5 6 5 6 8 8 7 7 7 7 7 7 8 10 11 10 8 6 6 5 4 3 5 4 7 6 6 6 4 2 2 3 2
16 6 6 7 7 5 6 6 5 5 5 6 8 7 7 5 4 6 4 1 3 7 7 6 7 9 13 13 9 9 11 9 7 9 9 7 9 10 8 6 5 7 6 7 8 7 6 7 6 6 7 8 7 6 7 6 7 7 7 8 7 6 7 6 6 7 7 8 9 9 9 8 7 6 3 4 4 2 2 5 6 5 3 2 1 2 1 1
15 6 6 9 8 8 9 5 5 6 6 8 8 7 6 5 6 7 4 2 3 6 7 7 8 9 12 13 8 10 10 8 9 10 9 8 8 8 8 7 5 6 7 5 6 6 6 9 9 7 6 7 8 8 7 8 7 8 8 7 6 6 6 6 6 6 7 7 5 4 5 6 7 6 2 5 6 4 1 1 2 3 0 2 1 1 2 3
14 7 7 9 9 9 10 9 8 8 7 8 7 6 5 5 7 6 4 4 3 4 4 5 7 8 10 10 8 9 9 7 8 9 9 8 7 7 8 7 5 6 4 4 4 5 7 9 10 8 6 6 8 7 5 6 6 8 8 6 6 6 6 7 7 6 7 6 2 1 1 5 7 4 3 6 5 5 4 2 3 3 2 1 1 2 3 4
13 8 8 9 10 11 10 9 9 7 7 8 6 6 7 8 7 5 4 5 3 3 5 5 7 9 9 8 7 7 7 6 8 8 7 8 7 7 7 7 7 7 5 5 5 6 7 6 7 5 3 5 8 8 6 5 5 7 7 7 7 6 6 7 6 6 6 4 3 3 1 5 5 1 4 7 6 5 5 6 6 4 3 2 2 4 5 6
12 8 7 9 10 10 9 9 7 6 7 7 6 6 8 7 7 6 6 4 4 6 7 6 8 10 9 7 6 7 6 5 7 8 7 8 6 5 6 5 5 6 6 5 3 4 9 5 6 5 3 4 8 6 5 7 6 6 7 8 7 6 6 6 6 6 4 5 5 5 4 4 2 4 4 6 7 7 6 7 7 6 5 4 5 5 6 6
9 5 6 9 10 7 7 7 6 6 7 7 6 7 8 7 6 4 2 2 3 6 8 8 9 9 8 6 6 8 7 5 7 8 6 7 6 5 6 4 2 4 6 6 3 3 7 4 7 6 5 6 6 5 4 7 5 3 5 7 6 6 6 7 7 5 3 5 7 6 7 6 3 6 8 7 7 7 7 8 8 7 7 6 6 6 7 7
10 5 7 11 10 6 5 6 6 7 7 7 7 8 7 7 5 4 1 1 3 5 6 7 6 7 8 7 7 9 9 7 8 7 5 6 4 4 6 4 1 5 4 4 5 3 5 6 3 6 8 5 3 7 8 9 7 6 5 3 5 6 6 5 6 5 5 7 7 6 9 8 6 4 7 9 8 8 8 8 9 8 7 8 7 8 8 8
12 9 10 10 8 3 4 6 7 8 7 7 9 9 9 8 5 4 2 3 5 6 8 8 5 5 8 6 7 8 8 7 8 7 6 6 4 3 5 4 3 4 3 3 5 3 3 7 7 8 8 4 4 7 10 10 10 10 8 5 4 6 6 5 5 6 7 8 6 7 9 7 6 4 7 9 9 9 9 8 9 8 8 8 8 9 10 9
11 9 7 7 7 3 3 6 7 8 7 8 9 8 9 9 5 2 2 4 7 7 8 9 6 6 8 7 8 8 7 7 7 5 5 5 3 3 4 3 3 4 2 4 5 2 2 6 7 5 5 3 4 6 8 8 10 10 9 8 6 6 6 5 5 5 7 8 7 8 8 6 5 2 6 8 9 10 9 8 8 8 8 8 7 8 9 8
9 7 2 7 5 3 4 6 8 7 7 8 9 7 7 7 5 2 2 5 6 6 6 8 7 6 7 9 9 7 6 7 7 6 5 4 3 4 3 3 3 3 1 4 6 3 3 6 6 5 5 5 6 6 7 7 6 7 7 7 7 6 6 6 6 6 7 8 7 7 8 5 1 2 2 4 7 9 8 7 7 8 9 8 8 9 8 9
7 6 2 6 3 4 5 6 7 7 8 8 9 10 5 4 4 4 4 5 6 5 6 8 8 6 6 8 8 6 6 6 7 7 6 5 6 5 2 1 3 2 1 5 5 2 4 5 6 7 6 7 7 3 4 7 6 6 6 5 5 6 6 7 8 7 7 8 7 7 8 4 3 2 2 4 4 8 8 8 8 8 9 9 9 9 8 9
7 5 3 5 1 4 6 7 7 6 8 7 8 8 3 2 6 5 4 6 7 7 6 6 8 7 6 7 7 7 7 6 7 7 6 7 7 3 4 4 1 3 3 6 4 3 2 4 6 8 8 10 10 3 1 5 8 10 9 8 7 7 7 7 7 6 6 8 8 8 8 3 2 1 1 1 2 5 6 8 9 8 8 9 9 10 9 8
6 3 5 6 2 5 6 8 8 7 8 8 7 6 2 3 7 6 4 7 7 6 6 5 7 7 7 7 7 8 7 5 8 8 6 7 2 7 7 5 1 3 4 7 5 3 2 3 7 8 8 11 14 9 7 5 7 10 10 9 9 10 10 9 9 7 7 8 8 7 8 2 2 0 2 3 3 4 5 7 9 8 8 8 9 10 9 8
4 4 2 4 3 6 7 7 8 8 8 9 8 7 5 5 6 6 6 6 5 5 5 5 6 6 6 6 6 8 8 5 8 8 7 7 2 8 5 4 1 6 4 3 3 2 1 5 6 7 8 7 10 11 9 7 6 7 8 11 11 11 11 10 9 7 8 11 11 9 9 3 3 2 2 4 5 6 7 8 9 9 8 8 9 8 8 8
5 5 3 2 4 7 7 6 6 7 7 7 8 8 8 6 4 5 7 5 2 4 5 5 5 4 6 6 6 9 10 7 6 6 5 5 2 6 4 4 4 7 2 8 6 3 3 6 5 6 8 7 7 7 5 4 5 5 8 11 10 8 10 9 8 8 9 11 12 11 9 4 3 4 4 4 7 8 8 8 9 9 9 9 8 7 7 7
4 3 2 2 3 5 5 4 6 7 6 6 6 8 9 8 5 3 6 6 3 4 7 5 5 5 7 8 7 9 10 9 8 7 6 7 4 5 3 4 4 2 7 7 4 5 5 6 8 10 10 10 10 10 9 8 8 8 10 11 9 8 10 9 7 9 9 10 11 11 12 9 6 6 5 5 6 7 7 8 8 8 8 8 7 7 6 6
3 2 3 2 1 3 3 2 3 5 4 3 3 4 7 9 6 4 4 5 3 4 6 6 6 7 8 9 8 8 10 11 11 9 9 9 6 5 5 4 4 4 5 1 4 4 5 7 10 13 14 14 15 16 15 14 14 14 13 14 15 14 13 11 9 11 11 10 11 11 12 12 11 8 6 5 6 7 7 7 7 6 6 6 5 6 5 5
3 2 3 4 3 2 1 2 4 4 2 2 3 2 4 8 7 4 4 3 2 4 5 5 7 9 9 8 7 7 9 11 10 10 9 9 8 4 5 7 7 8 5 7 6 3 6 8 10 13 15 16 17 17 16 16 15 16 16 16 17 18 17 15 15 15 13 11 12 13 15 14 12 11 9 5 5 7 8 7 7 7 6 6 6 5 5 5
4 2 3 4 4 2 4 5 5 5 3 2 1 1 4 7 6 3 2 3 3 3 3 5 7 8 8 7 7 7 7 8 8 9 8 7 8 6 5 7 7 6 6 9 6 3 5 6 9 12 14 15 17 16 16 16 16 17 18 18 18 18 19 18 18 18 17 17 18 17 19 18 14 12 12 9 6 6 7 8 8 9 9 9 8 7 6 6
5 3 4 5 4 2 3 4 5 5 3 1 1 1 2 4 4 3 2 3 4 3 3 6 8 6 4 5 6 4 4 5 4 3 4 4 6 6 6 6 6 5 7 8 6 4 3 4 7 9 10 13 15 16 16 17 18 18 19 19 19 18 19 18 18 17 16 17 19 18 17 15 11 10 13 13 10 9 9 10 10 10 10 10 10 9 8 7
8 4 4 6 3 3 3 3 3 5 3 1 1 2 2 2 3 3 2 3 3 2 4 6 6 4 6 6 3 2 6 7 5 4 4 4 5 4 5 5 6 5 7 7 6 5 3 5 8 8 10 11 12 15 17 15 16 19 19 19 19 18 17 16 15 15 14 15 16 16 14 10 9 11 13 15 15 15 13 13 12 11 11 12 11 11 9 8
11 5 5 6 2 2 4 3 1 2 1 3 4 3 2 2 2 3 3 1 2 3 4 5 5 5 7 4 2 4 6 6 6 5 4 5 6 6 5 5 6 6 6 7 6 6 6 6 7 8 9 10 12 15 13 9 10 12 12 13 16 18 18 17 16 17 17 15 13 13 12 10 11 12 12 13 14 14 13 12 11 10 11 11 11 11 9 8
Wind_Direction
327 327 324 323 322 319 318 317 315 313 312 309 307 306 302 301 299 300 299 295 301 302 304 298 294 297 295 301 297 301 311 303 293 266 244 245 260 273 253 244 223 202 181 193 205 203 203 211 218 209 220 218 217 235 206 205 232 227 229 240 243 246 247 254 254 289 347 288 87 53 17 332 304 308 261 241 239 241 217 200 181 143 106 71 99 121 140 146
329 328 326 324 320 319 317 316 315 312 312 310 308 307 303 300 300 299 298 294 294 296 298 294 293 295 295 300 298 309 317 299 281 267 249 245 254 250 248 242 210 187 181 199 205 206 209 207 207 205 219 220 207 211 193 196 217 229 234 237 241 251 265 341 310 327 330 300 337 1 328 325 306 313 293 254 235 221 218 194 155 125 99 94 116 134 143 143
327 325 323 320 318 317 316 315 314 312 310 308 305 303 300 299 300 299 299 297 291 293 295 296 296 293 296 300 303 318 317 295 274 256 224 229 244 241 231 210 192 180 187 208 210 211 224 222 204 206 220 222 206 195 193 190 201 228 239 243 240 254 281 358 309 294 291 298 309 301 310 308 289 322 292 268 254 222 218 199 163 142 135 144 144 141 144 146
323 322 322 320 318 316 315 315 312 311 307 304 300 296 295 293 295 299 300 299 292 293 294 296 294 291 298 301 307 321 304 283 262 147 152 219 244 228 204 191 183 181 201 228 227 220 236 239 211 214 225 226 212 205 218 192 186 224 229 248 254 266 283 272 281 274 275 290 289 291 293 283 306 323 272 261 258 233 221 211 184 161 154 160 156 150 152 152
322 320 319 318 318 316 314 314 311 310 308 305 303 300 299 295 293 294 294 294 290 289 290 290 290 291 297 299 308 308 287 272 118 106 128 256 252 206 186 184 180 184 211 230 218 216 225 223 215 219 228 236 214 204 233 207 200 245 234 252 268 289 287 270 283 278 288 286 270 265 268 292 328 281 255 250 253 241 238 229 200 167 152 153 166 165 158 156
321 319 316 316 317 314 314 314 312 311 310 309 307 305 304 300 296 291 288 290 288 287 287 284 289 293 293 297 301 280 265 287 80 87 71 301 222 177 175 178 177 190 217 220 205 207 214 215 212 215 223 237 222 210 232 210 198 250 241 238 255 268 272 279 284 271 273 265 255 257 281 314 295 268 242 245 252 169 327 255 159 144 144 151 172 176 161 157
319 319 317 317 315 314 312 310 309 308 309 309 308 307 306 304 297 291 288 288 286 285 283 282 287 291 297 299 287 251 245 314 67 67 59 113 161 160 168 170 176 202 220 214 205 207 212 212 212 216 221 229 226 219 218 203 206 241 253 244 243 254 263 273 270 260 251 252 253 267 284 278 264 273 213 232 233 106 185 72 97 117 136 153 167 174 168 157
317 317 317 315 313 313 310 308 307 304 305 306 307 307 306 304 299 293 288 285 283 282 277 281 288 292 312 310 281 239 234 36 68 98 140 136 148 156 162 168 186 209 212 209 209 214 214 212 219 221 227 232 232 222 191 206 229 230 248 258 250 250 255 255 251 249 249 249 248 253 261 256 256 284 230 217 154 142 197 103 96 123 145 163 170 171 169 157
314 314 315 311 309 309 310 310 306 305 304 303 304 303 303 302 300 295 287 283 280 280 275 275 284 300 321 302 277 256 146 55 74 131 145 144 152 161 168 177 194 207 208 212 216 225 219 213 226 233 250 268 244 225 202 217 234 220 237 252 250 250 248 242 240 240 243 236 231 238 240 235 227 241 221 173 120 170 163 110 101 140 156 161 173 173 162 157
311 309 311 307 305 306 310 309 305 304 301 301 302 301 301 299 298 296 290 285 278 278 272 272 289 309 299 271 265 272 84 70 97 135 149 154 158 170 189 191 190 206 211 207 212 224 231 227 234 247 268 278 225 228 218 225 264 229 242 256 255 260 254 243 245 239 238 223 216 234 232 202 184 221 211 130 129 175 149 125 129 155 165 167 181 176 159 156
308 304 305 302 301 304 307 306 303 302 302 303 302 301 302 298 295 292 290 286 278 276 272 282 310 305 284 269 269 299 94 90 110 145 161 163 169 179 200 195 188 210 204 189 208 220 256 276 247 239 259 260 207 221 222 235 288 273 249 260 248 250 246 235 239 229 228 212 204 232 230 171 189 214 168 126 151 168 139 139 159 167 173 184 184 169 156 155
304 299 299 296 297 299 301 303 300 300 304 302 300 302 302 300 294 285 288 288 280 276 276 292 328 310 287 271 267 68 93 115 118 153 169 171 183 187 195 190 196 218 201 190 200 203 255 268 242 249 268 293 222 218 214 227 265 250 244 258 240 232 225 218 224 212 215 198 183 226 226 185 200 179 111 134 158 160 139 142 167 173 171 182 184 163 156 159
300 296 294 292 293 293 294 296 293 297 302 302 302 303 301 299 293 282 282 283 281 284 287 299 319 290 279 273 106 95 98 121 129 151 169 178 191 197 202 198 210 231 231 223 187 179 238 246 252 269 287 259 250 358 219 220 244 241 230 248 246 231 205 192 208 199 202 178 161 221 229 194 188 140 119 145 163 172 161 158 165 174 170 172 181 166 158 162
298 293 291 289 286 284 288 286 286 292 296 299 300 302 302 297 291 282 274 276 281 285 297 309 307 273 265 194 100 125 140 130 152 158 165 178 184 185 188 193 205 211 227 260 211 192 250 256 255 270 264 254 283 341 232 225 229 232 223 224 238 240 178 161 184 196 193 154 166 221 239 204 160 130 136 150 175 189 175 173 164 161 180 172 175 177 161 161
299 293 290 284 280 278 279 277 281 287 292 296 297 301 302 293 287 275 265 271 278 292 325 301 263 250 258 166 125 158 164 165 183 170 165 173 167 161 169 177 185 191 205 236 230 230 254 252 247 256 227 221 263 251 225 218 210 224 228 212 227 239 151 149 173 201 205 164 185 219 239 203 153 136 151 157 191 201 188 186 162 153 171 172 165 189 172 158
302 292 284 278 276 273 273 273 275 283 290 292 294 298 296 289 282 268 261 255 271 308 312 277 234 233 279 105 134 165 189 188 176 164 172 180 171 156 159 170 177 187 205 222 236 242 241 243 250 268 256 209 228 239 233 219 199 212 233 224 225 212 154 159 177 197 212 172 186 216 247 218 132 131 157 166 199 209 200 194 176 164 163 169 177 191 189 165
305 290 280 275 272 271 271 272 275 282 290 292 296 294 286 286 274 264 272 240 276 278 249 275 270 244 278 106 147 180 189 173 158 166 176 193 204 163 161 178 184 187 203 212 227 236 229 232 239 244 246 236 239 247 239 227 205 196 225 246 240 236 205 167 167 183 196 202 203 206 237 241 120 136 164 171 197 205 212 203 191 187 166 166 178 190 192 173
312 294 277 272 271 272 270 273 278 283 290 292 290 284 284 300 296 268 262 208 226 238 242 260 269 265 214 166 174 174 166 159 164 177 173 188 213 177 177 193 183 186 205 208 212 222 214 216 237 232 222 226 232 239 232 258 280 212 205 235 222 245 270 194 144 168 187 216 231 205 221 239 172 163 182 182 198 200 211 212 197 206 181 165 174 189 190 176
320 303 285 275 273 271 270 273 277 282 290 293 296 302 308 315 302 241 228 209 199 220 250 197 202 280 126 163 161 124 143 157 167 182 179 182 196 192 200 215 200 199 210 202 190 206 218 213 231 237 225 214 213 253 315 348 333 318 251 261 235 215 235 191 112 127 206 223 242 219 217 243 220 195 200 188 200 215 214 213 203 211 200 185 190 188 178 181
325 314 298 283 276 273 272 272 272 283 285 276 292 286 266 267 239 205 209 217 226 252 300 178 193 246 119 149 142 124 144 166 182 194 187 182 192 202 209 215 211 211 227 224 172 184 237 238 231 235 234 37 17 353 349 341 332 322 301 282 268 239 224 197 118 118 244 252 243 228 218 249 248 218 218 197 203 225 220 212 211 216 212 205 209 191 172 173
328 318 304 292 285 277 270 269 271 282 272 238 255 260 292 1 335 355 279 233 227 239 262 223 215 255 272 132 148 157 167 179 194 197 183 186 200 205 196 205 219 212 223 235 167 142 235 249 241 247 37 35 4 345 332 311 304 287 272 263 253 247 242 221 104 119 190 250 251 240 227 252 257 232 219 213 219 225 221 217 211 215 220 213 214 201 173 160
331 318 308 298 289 278 269 272 268 268 262 215 242 253 337 21 352 342 328 268 219 213 235 233 231 246 222 188 183 197 211 190 187 183 174 188 206 207 179 191 229 221 195 209 221 198 217 241 231 138 47 16 327 304 282 274 275 264 256 259 251 243 239 110 102 166 191 239 256 246 229 241 251 240 211 207 230 230 220 223 217 214 219 214 214 206 180 172
333 320 310 300 292 285 273 274 263 250 236 220 246 265 350 10 337 322 299 280 237 195 214 214 211 209 192 196 185 199 223 196 175 171 171 194 210 218 213 208 228 228 190 199 229 237 227 236 160 108 79 265 238 241 248 251 250 249 247 253 250 243 252 199 150 209 226 252 277 275 256 248 255 245 214 207 228 231 217 221 221 216 217 215 214 207 194 187
329 319 309 306 297 285 280 280 263 244 223 232 258 292 351 336 325 321 289 274 254 184 197 201 208 212 185 168 174 201 229 212 181 167 166 199 209 201 233 240 227 227 224 211 227 250 256 81 99 115 144 238 241 223 231 249 239 233 238 255 261 246 265 277 170 193 243 236 255 272 264 246 244 238 223 209 213 220 210 209 213 211 213 217 217 215 215 198
319 311 306 302 298 287 285 272 242 235 224 237 256 279 328 320 325 321 297 267 235 166 178 189 204 214 163 146 178 208 241 226 201 158 159 201 221 193 224 244 235 236 224 194 221 251 245 88 118 178 202 230 245 234 222 240 253 237 222 239 271 271 264 264 215 196 245 234 209 230 254 250 239 235 228 203 195 210 206 203 206 202 202 207 209 216 232 221
313 296 296 285 295 287 268 255 220 231 237 240 246 345 316 319 329 311 284 256 207 156 168 182 188 179 159 181 187 209 241 202 168 141 162 206 237 254 247 196 217 259 254 162 238 258 121 109 189 204 230 232 237 248 229 223 254 262 211 212 250 263 252 249 243 226 248 260 181 194 255 267 244 231 222 199 196 206 202 203 207 199 196 202 204 202 208 213
320 276 279 269 277 264 249 323 320 262 260 251 37 327 313 321 327 293 259 246 195 165 169 166 169 175 175 184 183 205 232 156 149 169 184 207 218 242 248 212 206 234 257 233 244 251 134 148 196 202 232 238 231 246 227 212 249 282 26 229 234 249 246 241 249 244 258 274 193 192 239 264 258 235 201 194 207 209 195 198 211 205 198 201 206 203 199 197
335 267 260 257 260 256 259 301 304 275 299 11 333 309 324 322 292 247 249 250 159 157 176 141 124 180 186 180 198 222 213 142 184 185 177 197 208 221 235 246 250 194 174 223 229 155 189 191 202 212 227 237 240 255 208 208 243 292 11 271 252 258 254 245 250 249 259 270 247 225 231 251 260 241 181 187 218 228 204 190 207 213 204 199 198 200 195 179
344 275 246 250 257 262 259 274 281 277 315 345 314 316 327 297 264 234 257 261 158 161 182 136 140 191 193 186 205 222 216 200 209 156 160 193 212 236 257 268 279 245 167 227 242 186 205 213 220 222 230 238 242 305 194 217 242 291 318 267 253 255 248 244 251 250 253 251 254 250 234 243 261 244 207 199 222 243 211 179 203 214 207 195 171 178 201 195
347 291 238 235 240 259 256 243 247 266 304 319 310 319 300 261 243 236 239 224 178 171 156 161 174 185 192 195 197 203 209 209 185 151 176 193 195 222 264 277 272 269 214 224 245 222 166 172 252 240 244 262 271 287 256 249 263 279 278 254 242 245 241 239 245 250 256 245 243 246 236 240 256 248 233 193 215 271 195 166 197 208 196 173 137 202 226 224
346 302 230 223 225 252 261 232 230 271 301 313 311 300 268 237 236 245 229 178 191 173 167 185 174 168 193 207 195 190 206 201 178 182 190 189 187 201 225 220 228 251 232 218 240 240 191 185 211 214 232 266 275 252 235 236 251 254 252 246 238 235 232 235 240 235 245 253 249 245 233 231 245 257 246 133 142 255 172 170 189 195 184 106 65 279 291 347
342 304 229 227 234 255 270 294 340 318 297 303 301 274 250 236 235 240 214 179 188 173 182 196 183 184 202 210 199 189 201 195 185 199 201 194 195 203 216 212 211 236 236 226 229 235 231 220 209 187 199 241 251 241 217 206 226 240 238 241 243 238 229 232 236 228 237 252 257 251 230 224 246 262 220 149 154 153 144 210 169 168 115 43 330 297 14 360
337 298 236 233 240 249 263 288 307 304 296 290 280 254 247 248 244 246 220 192 164 166 193 187 186 199 203 208 204 194 195 186 187 206 216 214 204 207 225 229 238 253 249 247 234 222 231 222 207 192 181 210 239 246 227 204 217 236 238 236 239 241 241 242 240 236 241 239 212 63 282 244 257 268 150 140 129 115 130 136 109 124 116 72 304 6 37 21
333 293 242 238 245 246 253 274 285 293 292 273 255 240 240 246 253 257 236 212 170 183 203 182 189 201 208 216 201 194 206 192 192 206 208 218 220 210 222 224 233 254 256 249 248 245 256 234 198 205 156 173 232 251 269 276 249 241 245 241 242 250 253 256 263 263 268 265 205 156 203 254 252 254 103 119 124 126 136 135 131 137 131 110 57 42 42 37
326 286 243 239 244 243 249 265 276 278 275 262 249 241 237 243 249 242 235 222 189 197 194 191 212 210 208 217 191 192 222 205 207 226 218 222 232 215 218 211 209 240 251 248 233 242 272 268 156 171 156 184 237 254 277 280 260 244 249 240 238 253 258 266 280 282 299 302 258 204 219 255 181 144 137 124 135 145 143 142 143 136 119 103 87 70 59 52
319 262 225 232 229 227 242 251 252 256 264 262 251 244 238 244 257 267 251 216 231 226 201 194 220 225 209 205 200 196 201 207 220 230 226 233 244 219 210 201 200 247 253 263 271 248 266 260 131 157 207 215 252 282 262 258 267 265 251 248 253 260 263 269 269 257 235 260 260 237 239 249 208 178 172 164 162 154 157 160 147 129 117 106 91 77 67 61
315 254 232 230 213 206 236 234 235 248 258 259 253 254 257 257 273 304 312 245 281 271 241 218 215 236 230 206 212 205 189 201 223 226 231 232 230 213 204 181 206 268 273 277 277 271 268 268 218 222 228 197 234 281 263 249 266 275 258 273 287 269 266 272 267 256 246 256 255 244 250 249 245 219 169 182 191 170 175 169 144 133 123 106 91 81 71 64
304 272 256 229 199 205 238 216 228 247 252 252 250 254 264 266 265 272 274 277 275 257 248 247 216 228 246 231 224 212 189 200 217 221 236 218 173 180 215 191 171 242 283 285 260 241 253 272 259 238 235 194 189 251 259 240 235 252 272 299 289 261 258 252 257 264 262 266 265 257 261 256 252 226 164 195 206 176 177 173 153 149 129 108 96 88 77 69
282 265 251 194 174 204 214 201 226 245 245 245 247 244 250 254 242 252 282 266 264 255 247 251 232 220 241 246 243 222 201 223 232 226 234 220 174 176 224 224 170 187 239 267 269 271 248 268 267 241 234 236 217 231 252 241 218 228 255 264 253 259 271 262 257 264 264 268 272 271 268 256 262 239 157 192 208 179 175 177 164 146 123 110 102 93 83 76
268 262 211 137 149 180 180 205 224 237 240 241 249 250 251 252 229 203 259 258 260 263 262 264 251 231 234 243 252 241 218 237 252 251 242 221 189 181 197 230 210 179 190 259 272 290 255 259 270 259 236 238 243 241 258 267 240 227 240 245 242 245 259 266 261 256 263 269 272 274 269 255 297 29 106 212 203 176 171 172 154 133 122 115 103 97 90 85
266 263 174 120 136 164 176 220 223 231 242 237 247 257 274 298 248 209 206 244 262 263 269 284 277 261 252 248 250 248 239 242 247 251 248 227 214 202 161 144 227 229 227 242 252 271 261 258 263 264 253 245 250 264 305 304 293 278 271 267 267 258 255 263 262 256 262 269 273 276 274 281 40 36 287 259 195 166 170 165 146 132 127 118 108 104 99 95
253 252 134 109 142 181 198 234 227 231 244 240 252 260 284 330 261 241 208 220 243 247 243 265 274 271 268 262 257 250 250 251 248 247 247 245 238 188 110 111 213 278 274 261 277 39 7 287 269 265 263 267 272 270 272 291 292 284 278 277 279 275 269 268 268 275 280 276 278 278 273 290 42 2 264 241 156 153 163 155 143 137 129 124 118 112 105 102
243 257 117 119 192 215 223 242 234 234 241 243 257 259 245 253 250 248 237 224 230 240 235 245 261 262 258 259 263 260 256 260 262 260 257 256 230 101 113 123 157 247 245 268 280 90 97 259 260 266 264 266 268 247 211 226 266 268 264 263 263 262 264 269 277 289 288 276 274 275 271 254 117 162 108 115 143 152 157 160 154 146 139 135 129 119 115 113
284 285 148 129 175 213 230 244 240 240 235 232 242 240 228 247 255 255 253 239 229 245 253 254 258 258 257 259 264 265 262 257 259 257 259 267 115 105 120 113 188 242 234 329 341 93 172 248 245 262 265 254 252 241 222 216 237 256 256 251 255 266 274 275 280 283 272 267 266 266 270 260 135 172 157 153 178 177 176 177 164 155 154 148 136 128 126 122
297 267 230 177 174 208 235 262 269 266 258 241 239 241 232 222 236 269 277 270 268 284 274 265 272 272 263 260 259 262 262 262 260 249 252 267 143 116 130 133 215 255 31 37 354 311 267 270 262 264 264 257 252 252 251 246 249 268 269 254 249 269 281 279 278 269 258 265 267 262 270 268 148 176 209 213 216 202 187 181 170 166 166 155 143 138 136 133
298 268 244 200 184 220 240 267 275 269 275 269 245 244 245 229 196 218 263 259 248 268 268 265 275 269 259 261 260 258 256 250 248 246 248 254 211 141 140 174 214 274 61 52 328 283 266 265 263 262 263 268 275 284 300 304 284 278 280 271 255 249 259 265 269 267 270 277 269 261 271 275 246 219 212 218 230 219 197 191 193 184 170 159 150 147 147 145
307 316 344 343 275 239 223 225 273 266 272 282 260 249 253 250 228 182 213 243 245 257 259 257 257 254 253 258 257 257 260 251 242 243 249 256 238 144 131 216 212 112 89 167 231 247 263 257 254 260 263 268 276 283 289 290 283 279 279 274 268 264 263 260 256 264 279 284 271 268 277 279 276 266 237 213 228 238 227 219 226 213 184 174 164 157 164 168
350 350 25 348 298 278 308 348 333 311 292 262 258 268 260 256 251 218 210 242 248 243 249 247 251 252 249 252 254 252 257 255 247 243 245 251 247 187 158 218 204 142 163 227 206 212 261 259 257 261 262 264 268 272 276 277 278 277 272 268 270 272 270 265 259 260 266 267 268 282 291 287 288 293 283 267 257 254 247 237 236 229 212 210 209 200 200 198
1 8 36 334 298 347 354 331 317 303 302 318 298 277 272 263 255 251 277 285 254 236 260 263 254 255 255 255 259 257 260 267 259 250 251 258 261 250 216 221 208 172 208 235 216 213 263 265 265 268 270 270 270 271 273 274 274 272 266 263 263 265 264 264 264 263 263 264 268 276 282 280 281 286 287 295 307 289 268 252 241 231 220 218 223 227 225 217
355 3 1 315 296 8 345 313 296 276 248 240 258 243 281 283 265 253 298 316 283 263 291 276 257 257 276 270 264 280 342 349 331 304 301 285 268 264 256 253 247 221 223 235 226 204 226 265 273 277 277 274 275 277 274 270 271 271 267 263 260 261 262 261 262 263 262 265 269 272 274 277 282 284 281 278 277 272 263 251 244 236 227 228 233 235 232 227
348 348 332 308 315 355 315 288 285 278 249 189 303 293 277 288 286 273 308 355 334 324 326 308 297 281 267 258 256 8 15 6 3 11 347 293 274 278 273 280 287 258 233 239 241 214 214 268 279 276 269 268 273 273 272 277 279 271 265 264 261 261 264 264 264 266 265 268 273 274 272 273 275 274 272 270 266 261 253 246 244 241 239 242 243 238 233 227
352 345 327 308 306 9 317 285 257 283 314 43 14 341 292 283 287 274 286 337 26 15 352 329 315 285 263 261 29 24 355 343 340 337 315 287 279 278 273 277 288 282 265 261 260 245 244 264 273 271 268 269 271 271 278 304 298 272 264 268 265 261 261 262 261 263 265 265 265 266 267 274 282 281 280 282 277 271 265 260 257 256 253 250 244 240 237 223